Weather History for KTHV - October, 2011

Change the Weather History Date:

Monday, October 24, 2011

  Actual Average Record
Temperature  
Mean Temperature 51 °F -  
Max Temperature 62 °F 0 °F 82 °F (2001)
Min Temperature 41 °F - 26 °F (1997)
Degree Days  
Heating Degree Days 14    
Growing Degree Days 1 (Base 50)    
Moisture  
Dew Point 46 °F    
Average Humidity 83    
Maximum Humidity 97    
Minimum Humidity 62    
Precipitation  
Precipitation 0.02 in - - ()
Sea Level Pressure  
Sea Level Pressure 30.06 in    
Wind  
Wind Speed 1 mph (SW)    
Max Wind Speed 8 mph    
Max Gust Speed -    
Visibility 7 miles    
Events Rain    
Averages and records for this station are not official NWS values.
T = Trace of Precipitation, MM = Missing Value Source: NWS Daily Summary

Daily Weather History Graph

Daily Weather History Graph

Search for Another Location

Airport or City:

Trip Planner

Search our weather history database for the weather conditions in past years. The results will help you decide how hot, cold, wet, or windy it might be!

Date:

Astronomy

Oct. 24, 2011 Rise Set
Actual Time 7:27 AM EDT 6:15 PM EDT
Civil Twilight 6:59 AM EDT 6:43 PM EDT
Nautical Twilight 6:27 AM EDT 7:14 PM EDT
Astronomical Twilight 5:56 AM EDT 7:46 PM EDT
Moon 4:43 AM EDT (10/24) 4:39 PM EDT (10/24)
Length of Visible Light 11h 43m
Length of Day
10h 48m
Waning Crescent, 7% of the Moon is Illuminated
Oct 24
Waning Crescent
Oct 26
New
Nov 2
First Quarter
Nov 10
Full
Nov 18
Last Quarter

Hourly Weather History & Observations

Time (EDT) Temp. Windchill Dew Point Humidity Pressure Visibility Wind Dir Wind Speed Gust Speed Precip Events Conditions
1:53 AM 43.0 °F - 41.0 °F 93% 30.12 in 5.0 mi Calm Calm - N/A   Clear
2:53 AM 43.0 °F - 41.0 °F 93% 30.11 in 4.0 mi Calm Calm - N/A   Clear
3:53 AM 43.0 °F - 41.0 °F 93% 30.10 in 4.0 mi Calm Calm - N/A   Clear
4:53 AM 43.0 °F - 42.1 °F 97% 30.09 in 3.0 mi Calm Calm - N/A   Clear
5:53 AM 41.0 °F - 39.9 °F 96% 30.08 in 3.0 mi Calm Calm - N/A   Clear
6:53 AM 44.1 °F - 43.0 °F 96% 30.08 in 4.0 mi Calm Calm - N/A   Overcast
7:53 AM 46.0 °F 44.8 °F 44.1 °F 93% 30.09 in 2.5 mi ESE 3.5 mph - N/A   Overcast
8:34 AM 48.2 °F - 46.4 °F 93% 30.09 in 3.0 mi Calm Calm - N/A   Overcast
8:53 AM 50.0 °F - 46.9 °F 89% 30.10 in 4.0 mi Calm Calm - N/A   Overcast
9:53 AM 53.1 °F - 48.0 °F 83% 30.09 in 7.0 mi Calm Calm - N/A   Partly Cloudy
10:53 AM 55.9 °F - 48.0 °F 75% 30.08 in 10.0 mi SSW 8.1 mph - N/A   Partly Cloudy
11:53 AM 60.1 °F - 48.0 °F 64% 30.07 in 10.0 mi Variable 6.9 mph - N/A   Overcast
12:53 PM 61.0 °F - 48.0 °F 62% 30.05 in 10.0 mi Calm Calm - N/A   Mostly Cloudy
1:53 PM 61.0 °F - 48.0 °F 62% 30.03 in 10.0 mi SSW 3.5 mph - 0.00 in   Overcast
2:53 PM 57.9 °F - 51.1 °F 78% 30.02 in 10.0 mi Calm Calm - 0.00 in Rain Light Rain
3:53 PM 61.0 °F - 48.9 °F 64% 30.00 in 10.0 mi SSW 5.8 mph - 0.00 in   Clear
4:53 PM 61.0 °F - 48.0 °F 62% 29.99 in 10.0 mi SW 5.8 mph - N/A   Partly Cloudy
5:53 PM 57.9 °F - 48.0 °F 70% 30.01 in 10.0 mi West 4.6 mph - 0.00 in   Overcast
6:53 PM 55.0 °F - 50.0 °F 83% 30.04 in 8.0 mi Calm Calm - 0.01 in Rain Light Rain
7:53 PM 53.1 °F - 50.0 °F 89% 30.03 in 10.0 mi Calm Calm - 0.01 in   Partly Cloudy
8:53 PM 51.1 °F - 48.0 °F 89% 30.04 in 9.0 mi Calm Calm - N/A   Clear
9:53 PM 50.0 °F - 46.9 °F 89% 30.05 in 8.0 mi West 3.5 mph - N/A   Clear
10:53 PM 51.1 °F - 46.9 °F 86% 30.05 in 8.0 mi West 5.8 mph - N/A   Clear
11:53 PM 50.0 °F - 46.0 °F 86% 30.06 in 10.0 mi West 4.6 mph - N/A   Clear